This is the latest recevied weather packets stored in our database for station/object G1OCN-WX. If no packets are shown the sender has not sent any weather packets the latest 1 day(s).
| Time | Temp. | Humidity | Pressure | Rain* | Wind** | Luminosity | Snow |
|---|---|---|---|---|---|---|---|
| 1777989036 | 16.11° C | 57% | 1012.6 hPa | 0 mm | 6.26 m/s, 41° | - | - |
| 1777988976 | 16.11° C | 59% | 1012.6 hPa | 0 mm | 5.36 m/s, 26° | - | - |
| 1777988916 | 16.11° C | 58% | 1012.6 hPa | 0 mm | 5.36 m/s, 352° | - | - |
| 1777988856 | 15.56° C | 58% | 1012.6 hPa | 0 mm | 4.47 m/s, 355° | - | - |
| 1777988796 | 15.56° C | 58% | 1012.6 hPa | 0 mm | 4.47 m/s, 355° | - | - |
| 1777988736 | 15.56° C | 59% | 1012.6 hPa | 0 mm | 4.47 m/s, 6° | - | - |
| 1777988676 | 15.56° C | 58% | 1012.6 hPa | 0 mm | 5.81 m/s, 28° | - | - |
| 1777988616 | 15.56° C | 59% | 1012.7 hPa | 0 mm | 5.36 m/s, 21° | - | - |
| 1777988556 | 15.56° C | 58% | 1012.7 hPa | 0 mm | 5.81 m/s, 29° | - | - |
| 1777988496 | 15.56° C | 59% | 1012.7 hPa | 0 mm | 5.81 m/s, 32° | - | - |
| 1777988436 | 15.56° C | 58% | 1012.6 hPa | 0 mm | 5.36 m/s, 25° | - | - |
| 1777988376 | 15.56° C | 57% | 1012.7 hPa | 0 mm | 6.26 m/s, 23° | - | - |
| 1777988315 | 15.56° C | 58% | 1012.7 hPa | 0 mm | 5.81 m/s, 30° | - | - |
| 1777988255 | 15.56° C | 59% | 1012.7 hPa | 0 mm | 5.36 m/s, 23° | - | - |
| 1777988195 | 15.56° C | 59% | 1012.7 hPa | 0 mm | 5.81 m/s, 17° | - | - |
| 1777988135 | 15.56° C | 58% | 1012.7 hPa | 0 mm | 5.81 m/s, 26° | - | - |
| 1777988075 | 15.56° C | 58% | 1012.7 hPa | 0 mm | 5.81 m/s, 30° | - | - |
| 1777988015 | 15.56° C | 57% | 1012.8 hPa | 0 mm | 5.81 m/s, 30° | - | - |
| 1777987955 | 16.11° C | 58% | 1012.7 hPa | 0 mm | 5.81 m/s, 30° | - | - |
| 1777987895 | 15.56° C | 58% | 1012.7 hPa | 0 mm | 5.36 m/s, 37° | - | - |
| 1777987835 | 15.56° C | 58% | 1012.7 hPa | 0 mm | 4.47 m/s, 29° | - | - |
| 1777987775 | 15.56° C | 59% | 1012.7 hPa | 0 mm | 4.47 m/s, 39° | - | - |
| 1777987715 | 15.56° C | 58% | 1012.7 hPa | 0 mm | 5.36 m/s, 34° | - | - |
| 1777987655 | 15.56° C | 58% | 1012.7 hPa | 0 mm | 5.36 m/s, 36° | - | - |
| 1777987595 | 15.56° C | 59% | 1012.8 hPa | 0 mm | 6.26 m/s, 37° | - | - |
* Rain latest hour (hover to see other rain measurements)
** Current wind speed in m/s (hover to see current wind gust speed)